Location: A�t Bou Chrif
(32.7193°N, 5.2385°W)
Time: 02:58:40
(UTC+00:00)

Spot 2 Rocket - Pass Details

Date: 08 August 2020
Orbit: 756 x 773 km, 98.6° (Epoch: 20 September)

Event Time Altitude Azimuth Distance (km) Brightness Sun altitude
Exits shadow 21:51:36 69° 295° (WNW) 827 3.7 -29.0°
Drops below altitude 10° 21:56:18 10° 343° (NNW) 2,318 6.7 -29.6°
Sets 21:58:38 0° 345° (NNW) 3,246 7.6 -30.0°
